[[{"header":{"parameterUnit":"m.s-1","parameterCategory":1,"la1":30.2991,"la2":30.254,"lo1":-89.0895,"lo2":-89.0444,"dy":0.0017,"dx":0.0017,"nx":28,"ny":28,"refTime":"2025-08-13T21:00:00:Z","depth":0,"parameterNumber":2,"parameterNumberName":"U-component_of_WINDS"},"data":[0,0,0,0,0,0,0,0,0,0,0,0,0,0,0,0,0,0,0,0,0,0,0,0,0,0,0,0,0,0,0,0,0,0,0,0,0,0,0,0,0,0,0,0,0,0,0,0,0,0,0,0,0,0,0,0,0,0,3.6416,3.6417,0,3.6583,3.6585,3.6587,3.6573,3.657,3.6568,3.6565,3.674,3.6747,3.6754,0,0,0,0,0,0,0,0,0,0,0,0,0,3.6084,3.609,3.6415,3.6418,3.642,3.6583,3.6585,3.6587,3.6573,3.657,3.6567,3.6564,3.6738,3.6746,3.6754,0,0,0,0,0,0,0,0,0,0,0,0,0,3.6238,3.6092,3.6415,3.6432,3.6435,3.6582,3.6585,3.6588,3.6574,3.657,3.6566,3.6563,3.6735,3.6745,3.6755,3.6897,0,0,3.6788,3.6792,0,0,0,0,0,0,0,0,3.6229,3.625,3.6427,3.6431,3.6435,3.6553,3.6532,3.6692,3.6575,3.6521,3.6565,3.6561,3.6681,3.6696,3.6736,3.6906,3.6913,3.6789,3.6795,3.68,3.6803,0,0,0,0,0,0,0,3.6218,3.6243,3.6482,3.643,3.6435,3.6432,3.6449,3.6563,3.6621,3.6526,3.6525,3.6545,3.6682,3.6726,3.674,3.6916,3.6788,3.6798,3.6804,3.6808,3.7209,3.7213,0,0,0,0,0,0,3.6203,3.6234,3.6477,3.6487,3.632,3.6441,3.646,3.6519,3.6619,3.6631,3.6548,3.6544,3.6709,3.6727,3.6746,3.6917,3.68,3.6809,3.6815,3.7204,3.721,3.7214,0,0,0,0,0,0,3.6196,3.6225,3.647,3.636,3.6391,3.6451,3.6517,3.6524,3.6568,3.6636,3.6647,3.6581,3.6707,3.6731,3.6859,3.6923,3.6814,3.6824,3.7199,3.7206,3.7212,3.7262,0,0,0,0,0,0,3.6187,3.6223,3.6277,3.6362,3.6397,3.658,3.6521,3.653,3.6585,3.6581,3.667,3.6682,3.6706,3.6844,3.687,3.6936,3.6832,3.7194,3.7202,3.721,3.7255,3.727,3.7282,0,0,0,0,0,3.6175,3.6286,3.628,3.6309,3.6466,3.6584,3.6604,3.6629,3.6591,3.6646,3.669,3.6679,3.6912,3.6857,3.6886,3.6956,3.719,3.72,3.7209,3.7249,3.7267,3.7282,0,0,0,0,0,0,3.6209,3.6297,3.6292,3.6433,3.6501,3.6581,3.6652,3.6647,3.6729,3.6721,3.675,3.677,3.6899,3.6941,3.6878,3.7098,3.7046,3.7062,3.7066,3.7084,3.7097,3.7084,3.6841,0,0,0,0,0,3.6233,3.632,3.6393,3.651,3.6544,3.6592,3.6644,3.6658,3.673,3.6759,3.6812,3.6883,3.6972,3.703,3.7116,3.7261,3.728,3.7324,3.7337,3.7348,3.7362,3.744,3.746,3.7246,3.7246,3.7246,0,0,3.6283,3.6342,3.6396,3.6519,3.6573,3.6663,3.6617,3.6715,3.6782,3.6774,3.6897,3.6939,3.702,3.7157,3.722,3.7196,3.7425,3.736,3.7368,3.7376,3.7452,3.7472,3.749,3.7253,3.7251,3.725,0,0,3.642,3.6474,3.6577,3.6631,3.6713,3.6744,3.6769,3.685,3.6876,3.7001,3.6996,3.7077,3.723,3.7287,3.7337,3.7493,3.7486,3.7521,3.7591,3.7667,3.7684,3.7699,3.7754,3.7774,3.7534,3.7534,3.7534,0,3.6473,3.6608,3.6631,3.6729,3.6783,3.6778,3.6882,3.6934,3.7041,3.7078,3.7049,3.724,3.7294,3.7444,3.7481,3.7522,3.7551,3.7511,3.768,3.7695,3.7709,3.7762,3.7783,3.7538,3.7537,3.7537,3.7537,0,3.6667,3.6761,3.6835,3.6935,3.6997,3.7098,3.7137,3.7197,3.7204,3.7238,3.7364,3.7428,3.7526,3.7563,3.7572,3.7714,3.7696,3.7673,3.7621,3.7733,3.7783,3.7803,3.7543,3.7542,3.7541,3.754,0,0,3.6832,3.6943,3.6969,3.7014,3.7103,3.7176,3.7277,3.7371,3.7422,3.7495,3.7579,3.7708,3.7687,3.7743,3.7758,3.7825,3.7943,3.7794,3.7796,3.7819,3.8102,3.8118,3.8141,3.7939,3.7943,3.7946,3.8095,0,3.6978,3.7154,3.7177,3.7334,3.742,3.7415,3.7503,3.7567,3.7601,3.7679,3.7717,3.7807,3.7773,3.7806,3.7872,3.7915,3.8001,3.7905,3.8018,3.8022,3.7997,3.8168,3.8186,3.8323,3.8115,3.8118,3.8121,0,3.7172,3.7248,3.7413,3.7488,3.7525,3.7603,3.7691,3.7766,3.7838,3.7858,3.7919,3.7925,3.8029,3.7972,3.8115,3.8049,3.8097,3.8125,3.8131,3.8142,3.8078,3.8183,3.8368,3.8388,3.8152,3.8149,3.8147,0,3.7274,3.7419,3.7535,3.7574,3.7665,3.772,3.776,3.7829,3.7884,3.796,3.7996,3.8084,3.8133,3.8201,3.8231,3.8187,3.8372,3.8318,3.8391,3.839,3.843,3.8427,3.8624,3.8462,3.8461,3.8461,3.8461,0,3.7434,3.7535,3.7582,3.7654,3.7766,3.7791,3.7902,3.7941,3.8001,3.808,3.8083,3.8157,3.8192,3.8272,3.8296,3.841,3.8432,3.8451,3.8456,3.8451,3.8448,3.8482,3.8473,3.8467,3.8465,3.8464,3.8463,0,3.7568,3.7604,3.773,3.7805,3.7826,3.7906,3.797,3.804,3.8072,3.8172,3.8197,3.8248,3.8342,3.8378,3.8494,3.851,3.8641,3.8639,3.8616,3.8618,3.8688,3.8681,3.8914,3.8945,3.8762,3.8764,3.8765,0,3.7668,3.7745,3.7827,3.788,3.7922,3.8007,3.8062,3.8089,3.8147,3.8233,3.8292,3.8386,3.8462,3.8612,3.866,3.8748,3.8747,3.8823,3.8761,3.8752,3.8747,3.8742,3.8749,3.8834,3.8836,3.8838,3.8839,0,3.7841,3.7854,3.7933,3.8018,3.8083,3.8151,3.8218,3.8261,3.8298,3.8363,3.8458,3.8517,3.8633,3.8725,3.8815,3.8858,3.8855,3.8858,3.8879,3.8874,3.8857,3.8866,3.8647,3.8853,3.8851,3.885,3.8849,3.8849,3.796,3.8028,3.8095,3.8183,3.8235,3.8297,3.8365,3.8405,3.8484,3.858,3.8592,3.8693,3.8763,3.8883,3.8929,3.9009,3.8989,3.902,3.9028,3.9035,3.9039,3.8845,3.9026,3.9025,3.9025,3.9025,3.9024,0,3.8132,3.8175,3.8255,3.8347,3.8415,3.8405,3.8478,3.8536,3.8625,3.8689,3.8763,3.8871,3.8961,3.9014,3.9104,3.9158,3.9159,3.918,3.9176,3.9186,3.9053,3.9025,3.9178,3.9178,3.9178,3.9178,3.9178,3.9178,3.823,3.8343,3.8364,3.8502,3.8545,3.8643,3.8685,3.8742,3.8793,3.8914,3.8987,3.9021,3.9081,3.9174,3.9255,3.9269,3.9302,3.9325,3.9337,3.9211,3.9196,3.918,3.9154,3.9332,3.9332,3.9463,3.9464,3.9465]},{"header":{"parameterUnit":"m.s-1","parameterCategory":1,"la1":30.2991,"la2":30.254,"lo1":-89.0895,"lo2":-89.0444,"dy":0.0017,"dx":0.0017,"nx":28,"ny":28,"refTime":"2025-08-13T21:00:00:Z","depth":0,"parameterNumber":3,"parameterNumberName":"V-component_of_WINDS"},"data":[0,0,0,0,0,0,0,0,0,0,0,0,0,0,0,0,0,0,0,0,0,0,0,0,0,0,0,0,0,0,0,0,0,0,0,0,0,0,0,0,0,0,0,0,0,0,0,0,0,0,0,0,0,0,0,0,0,0,0.7028,0.7029,0,0.7054,0.7055,0.7055,0.7028,0.7027,0.7026,0.7025,0.7052,0.7054,0.7056,0,0,0,0,0,0,0,0,0,0,0,0,0,0.6956,0.6957,0.7028,0.7029,0.7029,0.7054,0.7055,0.7055,0.7028,0.7027,0.7026,0.7025,0.7052,0.7054,0.7056,0,0,0,0,0,0,0,0,0,0,0,0,0,0.6985,0.6958,0.7028,0.7019,0.7018,0.7054,0.7055,0.7055,0.7029,0.7027,0.7026,0.7024,0.7051,0.7054,0.7056,0.7103,0,0,0.7064,0.7065,0,0,0,0,0,0,0,0,0.6984,0.6988,0.702,0.7019,0.7019,0.7036,0.7039,0.7071,0.7029,0.7025,0.7025,0.7023,0.7048,0.7051,0.7059,0.7105,0.7106,0.7064,0.7066,0.7067,0.7068,0,0,0,0,0,0,0,0.6982,0.6987,0.7039,0.702,0.702,0.7013,0.7016,0.7045,0.7045,0.7025,0.7023,0.7027,0.7048,0.7057,0.706,0.7106,0.7064,0.7066,0.7068,0.7069,0.7191,0.7192,0,0,0,0,0,0,0.6981,0.6985,0.7038,0.7039,0.6997,0.7016,0.7019,0.7032,0.7045,0.7045,0.7028,0.7025,0.7053,0.7057,0.7061,0.7117,0.7067,0.7069,0.7071,0.7189,0.7191,0.7193,0,0,0,0,0,0,0.6979,0.6985,0.7037,0.7012,0.7018,0.7019,0.7035,0.7034,0.7043,0.7047,0.7047,0.7037,0.7052,0.7057,0.7093,0.7117,0.707,0.7073,0.7187,0.719,0.7192,0.7229,0,0,0,0,0,0,0.6977,0.6985,0.7003,0.7012,0.7019,0.7069,0.7036,0.7035,0.7047,0.7044,0.7056,0.7056,0.7052,0.7089,0.7095,0.712,0.7075,0.7185,0.7188,0.7191,0.7226,0.7233,0.7239,0,0,0,0,0,0.6975,0.7013,0.7004,0.7011,0.7042,0.707,0.7074,0.7068,0.7049,0.7067,0.707,0.7056,0.7113,0.7093,0.71,0.7126,0.7183,0.7187,0.7191,0.7223,0.7231,0.7238,0,0,0,0,0,0,0.7007,0.7014,0.7004,0.7047,0.7058,0.7065,0.7088,0.7077,0.7094,0.709,0.7082,0.7085,0.7123,0.7127,0.7105,0.7172,0.7145,0.7151,0.7167,0.7175,0.7182,0.718,0.7077,0,0,0,0,0,0.7019,0.7041,0.7046,0.7083,0.7089,0.7087,0.71,0.7094,0.7105,0.711,0.7115,0.7127,0.7147,0.7161,0.7181,0.7226,0.7228,0.7247,0.7253,0.7258,0.7264,0.7288,0.7296,0.7206,0.7206,0.7205,0,0,0.7044,0.705,0.7065,0.7089,0.7097,0.7121,0.7092,0.7118,0.7135,0.7114,0.7148,0.7152,0.7165,0.7205,0.7223,0.721,0.7289,0.7263,0.7268,0.727,0.7293,0.7301,0.7309,0.7208,0.7208,0.7207,0,0,0.7102,0.7108,0.714,0.7148,0.7161,0.716,0.7167,0.7176,0.7178,0.7212,0.7196,0.7217,0.7253,0.7262,0.7272,0.7332,0.732,0.7339,0.7373,0.7396,0.7404,0.741,0.7432,0.744,0.7343,0.7344,0.7344,0,0.7131,0.7166,0.7158,0.7185,0.7196,0.7177,0.7209,0.7218,0.7236,0.7244,0.7229,0.7273,0.728,0.7323,0.7338,0.7346,0.7354,0.7338,0.7403,0.7409,0.7415,0.7436,0.7444,0.7346,0.7346,0.7345,0.7345,0,0.7202,0.7226,0.725,0.7268,0.7281,0.7311,0.7307,0.7322,0.7314,0.7315,0.7349,0.7357,0.7378,0.7387,0.738,0.7429,0.742,0.7404,0.7378,0.7426,0.7446,0.7454,0.7349,0.7348,0.7348,0.7347,0,0,0.7282,0.7294,0.7303,0.7311,0.7323,0.7341,0.7369,0.7389,0.7402,0.7415,0.7439,0.7469,0.7454,0.7465,0.7459,0.748,0.7528,0.7461,0.7461,0.7474,0.7582,0.7594,0.7604,0.7519,0.752,0.7522,0.7581,0,0.7341,0.739,0.7383,0.743,0.7452,0.7434,0.7459,0.7469,0.747,0.7489,0.7489,0.7511,0.749,0.7496,0.7516,0.7518,0.7549,0.7513,0.7541,0.7543,0.754,0.7614,0.7627,0.7683,0.7588,0.759,0.7591,0,0.7416,0.7431,0.7481,0.7489,0.7498,0.752,0.7537,0.7556,0.7566,0.7565,0.7577,0.7567,0.7595,0.7568,0.7607,0.7582,0.7593,0.7596,0.7598,0.7601,0.757,0.762,0.7701,0.771,0.7603,0.7602,0.7601,0,0.747,0.7503,0.7537,0.7544,0.7554,0.757,0.7575,0.7584,0.7596,0.7611,0.7619,0.7637,0.7647,0.7662,0.7657,0.7637,0.7697,0.7669,0.7697,0.7698,0.7712,0.7711,0.7796,0.7717,0.7717,0.7717,0.7717,0,0.7537,0.7568,0.7561,0.7582,0.7616,0.7608,0.7642,0.7645,0.7653,0.7674,0.7659,0.7679,0.7671,0.7691,0.7687,0.772,0.7725,0.7725,0.7724,0.7727,0.7727,0.7735,0.7731,0.7719,0.7719,0.7718,0.7718,0,0.7604,0.76,0.7636,0.7642,0.7645,0.767,0.7675,0.7695,0.7694,0.7721,0.7727,0.7726,0.7748,0.7744,0.7769,0.7766,0.7808,0.7801,0.7804,0.7803,0.7832,0.783,0.7926,0.7939,0.7851,0.7852,0.7852,0,0.7647,0.767,0.7679,0.7692,0.7698,0.7719,0.7731,0.7723,0.7737,0.775,0.7769,0.7789,0.7806,0.7842,0.7844,0.7862,0.7857,0.7889,0.786,0.7862,0.7858,0.7857,0.786,0.7896,0.7897,0.7897,0.7898,0,0.7724,0.7721,0.7739,0.7757,0.7772,0.7785,0.7797,0.7809,0.7802,0.7817,0.784,0.7853,0.7878,0.7899,0.7916,0.7921,0.7909,0.7907,0.7915,0.7919,0.792,0.792,0.7821,0.7905,0.7905,0.7904,0.7904,0.7903,0.7781,0.7801,0.781,0.7831,0.7839,0.785,0.7869,0.787,0.7889,0.7909,0.7903,0.7928,0.7938,0.796,0.7967,0.7987,0.7975,0.7986,0.7989,0.7992,0.7996,0.7916,0.799,0.799,0.7989,0.7989,0.7989,0,0.7858,0.7863,0.7882,0.7899,0.7915,0.7901,0.7914,0.7928,0.7951,0.7961,0.7977,0.8003,0.8023,0.8026,0.8045,0.806,0.8055,0.8066,0.8065,0.8066,0.8005,0.7997,0.807,0.807,0.807,0.8069,0.8069,0.8069,0.7901,0.7934,0.7932,0.7969,0.7973,0.7998,0.8006,0.8017,0.8025,0.8054,0.8071,0.8072,0.8079,0.8098,0.8116,0.8116,0.8124,0.8137,0.8136,0.8079,0.8071,0.8063,0.8055,0.8139,0.8139,0.8195,0.8196,0.8196]}]]